Time,TemperatureF,DewpointF,PressureIn,WindDirection,WindDirectionDegrees,WindSpeedMPH,WindSpeedGustMPH,Humidity,HourlyPrecipIn,Conditions,Clouds,dailyrainin,SoftwareType,DateUTC
2013-01-24 00:03:00,53.0,-99.9,-100.00,West,259,7.0,-999.0,-999,0.00,,,-99.99,,2013-01-24 06:03:00,
2013-01-24 00:12:00,53.0,-99.9,-100.00,West,259,7.0,-999.0,-999,0.00,,,-99.99,,2013-01-24 06:12:00,
2013-01-24 00:22:00,53.0,-99.9,-100.00,WSW,248,6.0,-999.0,-999,0.00,,,-99.99,,2013-01-24 06:22:00,
2013-01-24 00:33:00,52.0,-99.9,-100.00,WSW,245,8.0,-999.0,-999,0.00,,,-99.99,,2013-01-24 06:33:00,
2013-01-24 00:43:00,52.0,-99.9,-100.00,WSW,245,8.0,-999.0,-999,0.00,,,-99.99,,2013-01-24 06:43:00,
2013-01-24 00:53:00,52.0,-99.9,-100.00,WSW,248,7.0,-999.0,-999,0.00,,,-99.99,,2013-01-24 06:53:00,
2013-01-24 01:03:00,52.0,-99.9,-100.00,SW,233,7.0,-999.0,-999,0.00,,,-99.99,,2013-01-24 07:03:00,
2013-01-24 01:13:00,52.0,-99.9,-100.00,SW,233,7.0,-999.0,-999,0.00,,,-99.99,,2013-01-24 07:13:00,
2013-01-24 01:23:00,52.0,-99.9,-100.00,WSW,245,6.0,-999.0,-999,0.00,,,-99.99,,2013-01-24 07:23:00,
2013-01-24 01:34:00,52.0,-99.9,-100.00,WSW,240,6.0,-999.0,-999,0.00,,,-99.99,,2013-01-24 07:34:00,
2013-01-24 01:43:00,52.0,-99.9,-100.00,WSW,240,6.0,-999.0,-999,0.00,,,-99.99,,2013-01-24 07:43:00,
2013-01-24 01:53:00,52.0,-99.9,-100.00,SW,229,7.0,-999.0,-999,0.00,,,-99.99,,2013-01-24 07:53:00,
2013-01-24 02:03:00,52.0,-99.9,-100.00,SW,233,3.0,-999.0,-999,0.00,,,-99.99,,2013-01-24 08:03:00,
2013-01-24 02:13:00,52.0,-99.9,-100.00,SW,233,3.0,-999.0,-999,0.00,,,-99.99,,2013-01-24 08:13:00,
2013-01-24 02:23:00,52.0,-99.9,-100.00,SW,232,0.0,-999.0,-999,0.00,,,-99.99,,2013-01-24 08:23:00,
2013-01-24 02:33:00,52.0,-99.9,-100.00,SW,232,0.0,-999.0,-999,0.00,,,-99.99,,2013-01-24 08:33:00,
2013-01-24 02:43:00,52.0,-99.9,-100.00,SW,232,0.0,-999.0,-999,0.00,,,-99.99,,2013-01-24 08:43:00,
2013-01-24 02:53:00,52.0,-99.9,-100.00,SW,232,0.0,-999.0,-999,0.00,,,-99.99,,2013-01-24 08:53:00,
2013-01-24 03:03:00,52.0,-99.9,-100.00,SW,232,0.0,-999.0,-999,0.00,,,-99.99,,2013-01-24 09:03:00,
2013-01-24 03:13:00,52.0,-99.9,-100.00,SW,232,0.0,-999.0,-999,0.00,,,-99.99,,2013-01-24 09:13:00,
2013-01-24 03:23:00,52.0,-99.9,-100.00,SW,232,0.0,-999.0,-999,0.00,,,-99.99,,2013-01-24 09:23:00,
2013-01-24 03:34:00,52.0,-99.9,-100.00,North,359,0.0,-999.0,-999,0.00,,,-99.99,,2013-01-24 09:34:00,
2013-01-24 03:43:00,52.0,-99.9,-100.00,North,359,0.0,-999.0,-999,0.00,,,-99.99,,2013-01-24 09:43:00,
2013-01-24 03:54:00,51.0,-99.9,-100.00,South,173,0.0,-999.0,-999,0.00,,,-99.99,,2013-01-24 09:54:00,
2013-01-24 04:03:00,51.0,-99.9,-100.00,SSW,211,0.0,-999.0,-999,0.00,,,-99.99,,2013-01-24 10:03:00,
2013-01-24 04:13:00,51.0,-99.9,-100.00,SSW,211,0.0,-999.0,-999,0.00,,,-99.99,,2013-01-24 10:13:00,
2013-01-24 04:23:00,52.0,-99.9,-100.00,SSW,211,0.0,-999.0,-999,0.00,,,-99.99,,2013-01-24 10:23:00,
2013-01-24 04:34:00,52.0,-99.9,-100.00,SSW,211,0.0,-999.0,-999,0.00,,,-99.99,,2013-01-24 10:34:00,
2013-01-24 04:44:00,52.0,-99.9,-100.00,SSW,211,0.0,-999.0,-999,0.00,,,-99.99,,2013-01-24 10:44:00,
2013-01-24 04:53:00,51.0,-99.9,-100.00,SSW,211,0.0,-999.0,-999,0.00,,,-99.99,,2013-01-24 10:53:00,
2013-01-24 05:03:00,51.0,-99.9,-100.00,SSW,211,0.0,-999.0,-999,0.00,,,-99.99,,2013-01-24 11:03:00,
2013-01-24 05:13:00,51.0,-99.9,-100.00,SSW,211,0.0,-999.0,-999,0.00,,,-99.99,,2013-01-24 11:13:00,
2013-01-24 05:23:00,51.0,-99.9,-100.00,SSW,211,0.0,-999.0,-999,0.00,,,-99.99,,2013-01-24 11:23:00,
2013-01-24 05:34:00,51.0,-99.9,-100.00,North,359,0.0,-999.0,-999,0.00,,,-99.99,,2013-01-24 11:34:00,
2013-01-24 05:43:00,51.0,-99.9,-100.00,North,359,0.0,-999.0,-999,0.00,,,-99.99,,2013-01-24 11:43:00,
2013-01-24 05:53:00,51.0,-99.9,-100.00,SSW,200,0.0,-999.0,-999,0.00,,,-99.99,,2013-01-24 11:53:00,
2013-01-24 06:03:00,49.0,-99.9,-100.00,SSW,211,0.0,-999.0,-999,0.00,,,-99.99,,2013-01-24 12:03:00,
2013-01-24 06:12:00,49.0,-99.9,-100.00,SSW,211,0.0,-999.0,-999,0.00,,,-99.99,,2013-01-24 12:12:00,
2013-01-24 06:23:00,48.0,-99.9,-100.00,SW,233,0.0,-999.0,-999,0.00,,,-99.99,,2013-01-24 12:23:00,
2013-01-24 06:33:00,49.0,-99.9,-100.00,SW,235,0.0,-999.0,-999,0.00,,,-99.99,,2013-01-24 12:33:00,
2013-01-24 06:43:00,49.0,-99.9,-100.00,SW,235,0.0,-999.0,-999,0.00,,,-99.99,,2013-01-24 12:43:00,
2013-01-24 06:53:00,48.0,-99.9,-100.00,SSW,212,5.0,-999.0,-999,0.00,,,-99.99,,2013-01-24 12:53:00,
2013-01-24 07:03:00,48.0,-99.9,-100.00,SW,225,6.0,-999.0,-999,0.00,,,-99.99,,2013-01-24 13:03:00,
2013-01-24 07:13:00,48.0,-99.9,-100.00,SW,225,6.0,-999.0,-999,0.00,,,-99.99,,2013-01-24 13:13:00,
2013-01-24 07:23:00,49.0,-99.9,-100.00,SW,235,5.0,-999.0,-999,0.00,,,-99.99,,2013-01-24 13:23:00,
2013-01-24 07:33:00,51.0,-99.9,-100.00,SW,226,7.0,-999.0,-999,0.00,,,-99.99,,2013-01-24 13:33:00,
2013-01-24 07:43:00,51.0,-99.9,-100.00,SW,226,7.0,-999.0,-999,0.00,,,-99.99,,2013-01-24 13:43:00,
2013-01-24 07:53:00,53.0,-99.9,-100.00,WSW,243,8.0,-999.0,-999,0.00,,,-99.99,,2013-01-24 13:53:00,
2013-01-24 08:03:00,56.0,-99.9,-100.00,SSW,195,7.0,-999.0,-999,0.00,,,-99.99,,2013-01-24 14:03:00,
2013-01-24 08:13:00,56.0,-99.9,-100.00,SSW,195,7.0,-999.0,-999,0.00,,,-99.99,,2013-01-24 14:13:00,
2013-01-24 08:23:00,58.0,-99.9,-100.00,West,266,7.0,-999.0,-999,0.00,,,-99.99,,2013-01-24 14:23:00,
2013-01-24 08:33:00,60.0,-99.9,-100.00,WSW,239,4.0,-999.0,-999,0.00,,,-99.99,,2013-01-24 14:33:00,
2013-01-24 08:44:00,60.0,-99.9,-100.00,WSW,239,4.0,-999.0,-999,0.00,,,-99.99,,2013-01-24 14:44:00,
2013-01-24 08:54:00,62.0,-99.9,-100.00,West,263,3.0,-999.0,-999,0.00,,,-99.99,,2013-01-24 14:54:00,
2013-01-24 09:04:00,64.0,-99.9,-100.00,South,177,5.0,-999.0,-999,0.00,,,-99.99,,2013-01-24 15:04:00,
2013-01-24 09:13:00,64.0,-99.9,-100.00,South,177,5.0,-999.0,-999,0.00,,,-99.99,,2013-01-24 15:13:00,
2013-01-24 09:23:00,64.0,-99.9,-100.00,South,191,0.0,-999.0,-999,0.00,,,-99.99,,2013-01-24 15:23:00,
2013-01-24 09:33:00,64.0,-99.9,-100.00,South,191,0.0,-999.0,-999,0.00,,,-99.99,,2013-01-24 15:33:00,
2013-01-24 09:43:00,66.0,-99.9,-100.00,South,170,0.0,-999.0,-999,0.00,,,-99.99,,2013-01-24 15:43:00,
2013-01-24 09:53:00,68.0,-99.9,-100.00,SSW,197,9.0,-999.0,-999,0.00,,,-99.99,,2013-01-24 15:53:00,
2013-01-24 10:04:00,69.0,-99.9,-100.00,WSW,246,8.0,-999.0,-999,0.00,,,-99.99,,2013-01-24 16:04:00,
2013-01-24 10:12:00,69.0,-99.9,-100.00,WSW,246,8.0,-999.0,-999,0.00,,,-99.99,,2013-01-24 16:12:00,
2013-01-24 10:23:00,70.0,-99.9,-100.00,SW,233,10.0,-999.0,-999,0.00,,,-99.99,,2013-01-24 16:23:00,
2013-01-24 10:34:00,69.0,-99.9,-100.00,SW,215,10.0,-999.0,-999,0.00,,,-99.99,,2013-01-24 16:34:00,
2013-01-24 10:43:00,69.0,-99.9,-100.00,SW,215,10.0,-999.0,-999,0.00,,,-99.99,,2013-01-24 16:43:00,
2013-01-24 11:03:00,73.0,-99.9,-100.00,WSW,248,13.0,-999.0,-999,0.00,,,-99.99,,2013-01-24 17:03:00,
2013-01-24 11:12:00,73.0,-99.9,-100.00,WSW,248,13.0,-999.0,-999,0.00,,,-99.99,,2013-01-24 17:12:00,
2013-01-24 11:22:00,74.0,-99.9,-100.00,West,264,7.0,-999.0,-999,0.00,,,-99.99,,2013-01-24 17:22:00,
2013-01-24 11:33:00,75.0,-99.9,-100.00,West,281,10.0,-999.0,-999,0.00,,,-99.99,,2013-01-24 17:33:00,
2013-01-24 11:43:00,75.0,-99.9,-100.00,West,281,10.0,-999.0,-999,0.00,,,-99.99,,2013-01-24 17:43:00,
2013-01-24 11:53:00,76.0,-99.9,-100.00,West,267,8.0,-999.0,-999,0.00,,,-99.99,,2013-01-24 17:53:00,
2013-01-24 12:03:00,73.0,-99.9,-100.00,West,281,10.0,-999.0,-999,0.00,,,-99.99,,2013-01-24 18:03:00,
2013-01-24 12:13:00,73.0,-99.9,-100.00,WNW,297,7.0,-999.0,-999,0.00,,,-99.99,,2013-01-24 18:13:00,
2013-01-24 12:23:00,73.0,-99.9,-100.00,WNW,297,7.0,-999.0,-999,0.00,,,-99.99,,2013-01-24 18:23:00,
2013-01-24 12:33:00,77.0,-99.9,-100.00,West,270,5.0,-999.0,-999,0.00,,,-99.99,,2013-01-24 18:33:00,
2013-01-24 12:43:00,77.0,-99.9,-100.00,West,270,5.0,-999.0,-999,0.00,,,-99.99,,2013-01-24 18:43:00,
2013-01-24 12:54:00,73.0,-99.9,-100.00,WNW,291,5.0,-999.0,-999,0.00,,,-99.99,,2013-01-24 18:54:00,
2013-01-24 13:03:00,71.0,-99.9,-100.00,NW,307,8.0,-999.0,-999,0.00,,,-99.99,,2013-01-24 19:03:00,
2013-01-24 13:13:00,79.0,-99.9,-100.00,SW,236,6.0,-999.0,-999,0.00,,,-99.99,,2013-01-24 19:13:00,
2013-01-24 13:22:00,79.0,-99.9,-100.00,SW,236,6.0,-999.0,-999,0.00,,,-99.99,,2013-01-24 19:22:00,
2013-01-24 13:33:00,75.0,-99.9,-100.00,SW,236,0.0,-999.0,-999,0.00,,,-99.99,,2013-01-24 19:33:00,
2013-01-24 13:42:00,78.0,-99.9,-100.00,SW,232,8.0,-999.0,-999,0.00,,,-99.99,,2013-01-24 19:42:00,
2013-01-24 13:53:00,78.0,-99.9,-100.00,SW,232,8.0,-999.0,-999,0.00,,,-99.99,,2013-01-24 19:53:00,
2013-01-24 14:03:00,73.0,-99.9,-100.00,SW,228,8.0,-999.0,-999,0.00,,,-99.99,,2013-01-24 20:03:00,
2013-01-24 14:12:00,76.0,-99.9,-100.00,SSW,193,6.0,-999.0,-999,0.00,,,-99.99,,2013-01-24 20:12:00,
2013-01-24 14:23:00,76.0,-99.9,-100.00,SSW,193,6.0,-999.0,-999,0.00,,,-99.99,,2013-01-24 20:23:00,
2013-01-24 14:33:00,75.0,-99.9,-100.00,SW,232,12.0,-999.0,-999,0.00,,,-99.99,,2013-01-24 20:33:00,
2013-01-24 14:43:00,74.0,-99.9,-100.00,SW,214,10.0,-999.0,-999,0.00,,,-99.99,,2013-01-24 20:43:00,
2013-01-24 14:53:00,74.0,-99.9,-100.00,SW,214,10.0,-999.0,-999,0.00,,,-99.99,,2013-01-24 20:53:00,
2013-01-24 15:03:00,74.0,-99.9,-100.00,SSW,204,14.0,-999.0,-999,0.00,,,-99.99,,2013-01-24 21:03:00,
2013-01-24 15:13:00,74.0,-99.9,-100.00,SW,236,10.0,-999.0,-999,0.00,,,-99.99,,2013-01-24 21:13:00,
2013-01-24 15:23:00,74.0,-99.9,-100.00,SW,236,10.0,-999.0,-999,0.00,,,-99.99,,2013-01-24 21:23:00,
2013-01-24 15:33:00,73.0,-99.9,-100.00,SW,229,11.0,-999.0,-999,0.00,,,-99.99,,2013-01-24 21:33:00,
2013-01-24 15:44:00,73.0,-99.9,-100.00,SW,229,11.0,-999.0,-999,0.00,,,-99.99,,2013-01-24 21:44:00,
2013-01-24 15:53:00,73.0,-99.9,-100.00,SSW,210,10.0,-999.0,-999,0.00,,,-99.99,,2013-01-24 21:53:00,
2013-01-24 16:03:00,72.0,-99.9,-100.00,SW,233,13.0,-999.0,-999,0.00,,,-99.99,,2013-01-24 22:03:00,
2013-01-24 16:12:00,72.0,-99.9,-100.00,WSW,250,12.0,-999.0,-999,0.00,,,-99.99,,2013-01-24 22:12:00,
2013-01-24 16:23:00,72.0,-99.9,-100.00,WSW,250,12.0,-999.0,-999,0.00,,,-99.99,,2013-01-24 22:23:00,
2013-01-24 16:33:00,70.0,-99.9,-100.00,SW,228,8.0,-999.0,-999,0.00,,,-99.99,,2013-01-24 22:33:00,
2013-01-24 16:43:00,70.0,-99.9,-100.00,SW,228,8.0,-999.0,-999,0.00,,,-99.99,,2013-01-24 22:43:00,
2013-01-24 16:53:00,68.0,-99.9,-100.00,SW,236,8.0,-999.0,-999,0.00,,,-99.99,,2013-01-24 22:53:00,
2013-01-24 17:03:00,67.0,-99.9,-100.00,SW,236,8.0,-999.0,-999,0.00,,,-99.99,,2013-01-24 23:03:00,
2013-01-24 17:13:00,67.0,-99.9,-100.00,SW,236,8.0,-999.0,-999,0.00,,,-99.99,,2013-01-24 23:13:00,
2013-01-24 17:22:00,65.0,-99.9,-100.00,West,259,7.0,-999.0,-999,0.00,,,-99.99,,2013-01-24 23:22:00,
2013-01-24 17:33:00,64.0,-99.9,-100.00,WSW,249,10.0,-999.0,-999,0.00,,,-99.99,,2013-01-24 23:33:00,
2013-01-24 17:43:00,64.0,-99.9,-100.00,WSW,249,10.0,-999.0,-999,0.00,,,-99.99,,2013-01-24 23:43:00,
2013-01-24 17:53:00,63.0,-99.9,-100.00,WSW,252,7.0,-999.0,-999,0.00,,,-99.99,,2013-01-24 23:53:00,
2013-01-24 18:02:00,62.0,-99.9,-100.00,WSW,242,8.0,-999.0,-999,0.00,,,-99.99,,2013-01-25 00:02:00,
2013-01-24 18:12:00,62.0,-99.9,-100.00,WSW,242,8.0,-999.0,-999,0.00,,,-99.99,,2013-01-25 00:12:00,
2013-01-24 18:22:00,61.0,-99.9,-100.00,West,263,8.0,-999.0,-999,0.00,,,-99.99,,2013-01-25 00:22:00,
2013-01-24 18:32:00,61.0,-99.9,-100.00,WSW,255,9.0,-999.0,-999,0.00,,,-99.99,,2013-01-25 00:32:00,
2013-01-24 18:42:00,61.0,-99.9,-100.00,WSW,255,9.0,-999.0,-999,0.00,,,-99.99,,2013-01-25 00:42:00,
2013-01-24 18:53:00,61.0,-99.9,-100.00,West,276,7.0,-999.0,-999,0.00,,,-99.99,,2013-01-25 00:53:00,
2013-01-24 19:02:00,60.0,-99.9,-100.00,SW,226,5.0,-999.0,-999,0.00,,,-99.99,,2013-01-25 01:02:00,
2013-01-24 19:13:00,60.0,-99.9,-100.00,WSW,253,6.0,-999.0,-999,0.00,,,-99.99,,2013-01-25 01:13:00,
2013-01-24 19:22:00,60.0,-99.9,-100.00,WSW,253,6.0,-999.0,-999,0.00,,,-99.99,,2013-01-25 01:22:00,
2013-01-24 19:33:00,60.0,-99.9,-100.00,SW,233,6.0,-999.0,-999,0.00,,,-99.99,,2013-01-25 01:33:00,
2013-01-24 19:43:00,60.0,-99.9,-100.00,SW,233,6.0,-999.0,-999,0.00,,,-99.99,,2013-01-25 01:43:00,
2013-01-24 19:52:00,60.0,-99.9,-100.00,WSW,250,4.0,-999.0,-999,0.00,,,-99.99,,2013-01-25 01:52:00,
2013-01-24 20:03:00,60.0,-99.9,-100.00,SW,225,7.0,-999.0,-999,0.00,,,-99.99,,2013-01-25 02:03:00,
2013-01-24 20:12:00,60.0,-99.9,-100.00,SW,225,7.0,-999.0,-999,0.00,,,-99.99,,2013-01-25 02:12:00,
2013-01-24 20:22:00,60.0,-99.9,-100.00,SW,232,6.0,-999.0,-999,0.00,,,-99.99,,2013-01-25 02:22:00,
2013-01-24 20:33:00,60.0,-99.9,-100.00,WSW,239,5.0,-999.0,-999,0.00,,,-99.99,,2013-01-25 02:33:00,
2013-01-24 20:43:00,60.0,-99.9,-100.00,SW,225,6.0,-999.0,-999,0.00,,,-99.99,,2013-01-25 02:43:00,
2013-01-24 20:53:00,60.0,-99.9,-100.00,SW,225,6.0,-999.0,-999,0.00,,,-99.99,,2013-01-25 02:53:00,
2013-01-24 21:02:00,60.0,-99.9,-100.00,SW,233,4.0,-999.0,-999,0.00,,,-99.99,,2013-01-25 03:02:00,
2013-01-24 21:12:00,59.0,-99.9,-100.00,SW,217,6.0,-999.0,-999,0.00,,,-99.99,,2013-01-25 03:12:00,
2013-01-24 21:22:00,59.0,-99.9,-100.00,SW,217,6.0,-999.0,-999,0.00,,,-99.99,,2013-01-25 03:22:00,
2013-01-24 21:33:00,59.0,-99.9,-100.00,SW,221,6.0,-999.0,-999,0.00,,,-99.99,,2013-01-25 03:33:00,
2013-01-24 21:42:00,59.0,-99.9,-100.00,SW,221,6.0,-999.0,-999,0.00,,,-99.99,,2013-01-25 03:42:00,
2013-01-24 21:53:00,59.0,-99.9,-100.00,WSW,242,7.0,-999.0,-999,0.00,,,-99.99,,2013-01-25 03:53:00,
2013-01-24 22:02:00,59.0,-99.9,-100.00,WSW,256,8.0,-999.0,-999,0.00,,,-99.99,,2013-01-25 04:02:00,
2013-01-24 22:12:00,59.0,-99.9,-100.00,SW,236,7.0,-999.0,-999,0.00,,,-99.99,,2013-01-25 04:12:00,
2013-01-24 22:23:00,59.0,-99.9,-100.00,SW,236,7.0,-999.0,-999,0.00,,,-99.99,,2013-01-25 04:23:00,
2013-01-24 22:32:00,59.0,-99.9,-100.00,West,260,4.0,-999.0,-999,0.00,,,-99.99,,2013-01-25 04:32:00,
2013-01-24 22:42:00,59.0,-99.9,-100.00,West,260,4.0,-999.0,-999,0.00,,,-99.99,,2013-01-25 04:42:00,
2013-01-24 22:52:00,59.0,-99.9,-100.00,WSW,249,6.0,-999.0,-999,0.00,,,-99.99,,2013-01-25 04:52:00,
2013-01-24 23:04:00,59.0,-99.9,-100.00,WSW,242,6.0,-999.0,-999,0.00,,,-99.99,,2013-01-25 05:04:00,
2013-01-24 23:12:00,59.0,-99.9,-100.00,SW,217,3.0,-999.0,-999,0.00,,,-99.99,,2013-01-25 05:12:00,
2013-01-24 23:22:00,59.0,-99.9,-100.00,SW,217,3.0,-999.0,-999,0.00,,,-99.99,,2013-01-25 05:22:00,
2013-01-24 23:32:00,58.0,-99.9,-100.00,SW,232,7.0,-999.0,-999,0.00,,,-99.99,,2013-01-25 05:32:00,
2013-01-24 23:43:00,58.0,-99.9,-100.00,SW,232,7.0,-999.0,-999,0.00,,,-99.99,,2013-01-25 05:43:00,
2013-01-24 23:52:00,58.0,-99.9,-100.00,WSW,257,7.0,-999.0,-999,0.00,,,-99.99,,2013-01-25 05:52:00,